STARLINK-30314

decayed
NORAD ID: 57674 Int'l Des: 2023-124 Owner: SPXS Country: US Constellation: starlink
LEOCIRCULAR
Group

About STARLINK-30314

Description loading...

Altitude History

Altitude vs Time

uPlot chart will show altitude changes over time

Two-Line Element Set

1 57674U 23124M 25061.44286963 .11883599 12422-4 81421-3 0 9995
2 57674 53.1303 100.2344 0003294 347.4692 148.2790 16.40512418 86707
Epoch: Mar 2, 2025 • Age: 4790 hours

Current Status

Position data unavailable
Launch Date Aug 22, 2023
Age 2 years
Decay Date Mar 2, 2025
Type internet

Technical Details

Classification Payload
Mass 730.00 kg
Dry Mass 700.00 kg
Total Mass 730.00 kg
Length 0.30 m
Diameter 4.10 m
Span 29.00 m
Shape Box + pan
Manufacturer SPXS
Bus Type Starlink V2M
Phase Status Unknown Transfer Status
Owner/State SPXS/US

Large Constellations

Loading constellations...